Manchester, NH

10:48 PM EDT on October 15, 2019 (GMT -0400)
Manchester

Weather History for KMHT - September, 2019

Change the Weather History Date:

Monday, September 16, 2019

  Actual Average Record
Temperature  
Mean Temperature 63 °F 62 °F  
Max Temperature 72 °F 73 °F 89 °F (1957)
Min Temperature 53 °F 53 °F 39 °F (2001)
Degree Days  
Heating Degree Days 2 4  
Month to date heating degree days 32 35  
Since 1 July heating degree days 34 53  
Cooling Degree Days 0 1  
Month to date cooling degree days 29 42  
Year to date cooling degree days 804 628  
Growing Degree Days 14 (Base 50)    
Moisture  
Dew Point 47 °F    
Average Humidity 58    
Maximum Humidity 78    
Minimum Humidity 37    
Precipitation  
Precipitation 0.00 in 0.14 in 3.17 in (1916)
Month to date precipitation 0.47 1.93  
Year to date precipitation 23.43 31.19  
Snow  
Snow 0.00 in - - ()
Month to date snowfall 0.0  
Since 1 July snowfall 0.0  
Snow Depth 0.00 in    
Sea Level Pressure  
Sea Level Pressure 30.07 in    
Wind  
Wind Speed 6 mph (NW)    
Max Wind Speed 18 mph    
Max Gust Speed 25 mph    
Visibility 10 miles    
Events      
T = Trace of Precipitation, MM = Missing Value Source: NWS Daily Summary

Daily Weather History Graph

Daily Weather History Graph

Search for Another Location

Airport or City:

Astronomy

Sep. 16, 2019 Rise Set
Actual Time 6:26 AM EDT 6:54 PM EDT
Civil Twilight 5:57 AM EDT 7:22 PM EDT
Nautical Twilight 5:24 AM EDT 7:56 PM EDT
Astronomical Twilight 4:49 AM EDT 8:30 PM EDT
Moon 8:24 PM EDT 8:32 AM EDT
Length of Visible Light 13h 24m
Length of Day
12h 28m
Waning Gibbous, 94% of the Moon is Illuminated
Sep 16
Waning Gibbous
Sep 21
Last Quarter
Sep 28
New
Oct 5
First Quarter
Oct 13
Full

Hourly Weather History & Observations

Time (EDT) Temp. Dew Point Humidity Pressure Visibility Wind Dir Wind Speed Gust Speed Precip Events Conditions
12:53 AM 61.0 °F 54.0 °F 78% 30.06 in 10.0 mi Calm Calm - N/A   Partly Cloudy
1:53 AM 61.0 °F 54.0 °F 78% 30.05 in 10.0 mi North 3.5 mph - N/A   Partly Cloudy
2:53 AM 62.1 °F 53.1 °F 72% 30.05 in 10.0 mi North 3.5 mph - N/A   Clear
3:53 AM 62.1 °F 51.1 °F 67% 30.06 in 10.0 mi NNW 4.6 mph - N/A   Mostly Cloudy
4:53 AM 61.0 °F 48.9 °F 64% 30.07 in 10.0 mi NNW 6.9 mph - N/A   Mostly Cloudy
5:53 AM 60.1 °F 48.0 °F 64% 30.08 in 10.0 mi NW 4.6 mph - N/A   Mostly Cloudy
6:53 AM 57.9 °F 46.9 °F 67% 30.10 in 10.0 mi West 3.5 mph - N/A   Mostly Cloudy
7:53 AM 57.9 °F 46.9 °F 67% 30.11 in 10.0 mi WNW 4.6 mph - N/A   Mostly Cloudy
8:53 AM 60.1 °F 45.0 °F 57% 30.11 in 10.0 mi NW 9.2 mph - N/A   Mostly Cloudy
9:53 AM 62.1 °F 44.1 °F 52% 30.11 in 10.0 mi NW 8.1 mph - N/A   Scattered Clouds
10:53 AM 64.9 °F 44.1 °F 47% 30.09 in 10.0 mi NW 11.5 mph - N/A   Mostly Cloudy
11:53 AM 66.9 °F 44.1 °F 44% 30.07 in 10.0 mi NW 10.4 mph - N/A   Mostly Cloudy
12:53 PM 68.0 °F 43.0 °F 40% 30.06 in 10.0 mi North 12.7 mph 21.9 mph N/A   Mostly Cloudy
1:53 PM 70.0 °F 44.1 °F 39% 30.04 in 10.0 mi WNW 15.0 mph 21.9 mph N/A   Mostly Cloudy
2:53 PM 72.0 °F 44.1 °F 37% 30.04 in 10.0 mi NW 12.7 mph - N/A   Scattered Clouds
3:53 PM 70.0 °F 44.1 °F 39% 30.03 in 10.0 mi NW 13.8 mph - N/A   Scattered Clouds
4:53 PM 70.0 °F 43.0 °F 38% 30.03 in 10.0 mi WNW 11.5 mph - N/A   Partly Cloudy
5:53 PM 70.0 °F 44.1 °F 39% 30.04 in 10.0 mi NNW 10.4 mph - N/A   Partly Cloudy
6:53 PM 68.0 °F 43.0 °F 40% 30.05 in 10.0 mi NNW 8.1 mph - N/A   Partly Cloudy
7:53 PM 66.0 °F 44.1 °F 45% 30.06 in 10.0 mi North 8.1 mph - N/A   Partly Cloudy
8:53 PM 61.0 °F 46.9 °F 60% 30.08 in 10.0 mi Calm Calm - N/A   Clear
9:53 PM 57.9 °F 46.9 °F 67% 30.09 in 10.0 mi SE 3.5 mph - N/A   Clear
10:53 PM 55.9 °F 46.9 °F 72% 30.10 in 10.0 mi South 3.5 mph - N/A   Clear
11:53 PM 55.0 °F 46.9 °F 74% 30.11 in 10.0 mi Calm Calm - N/A   Clear